Dewpoint
72 73 75 76 76 76 76 75 75 75 75 75 74 74 74 74 73 73 73 73 73 73 73 73 73 73 73 73 72 72 72 72 71 71 71 71 70 69 69 69 68 68 67 67 67 67 67 67 67 67 68 68 69 69 69 70 70 70 70 70 71 71 71 71 70 70 71 70 70 70 70 70 70 70 70 69 69 69 69 69 70 68 68 69 70
72 74 75 75 75 75 75 75 75 75 75 75 74 74 74 74 73 73 73 73 73 73 73 73 73 73 73 73 72 72 72 71 71 71 71 70 69 68 68 68 68 68 68 67 67 68 68 67 67 66 67 68 68 69 69 69 69 70 70 70 71 71 71 70 70 70 70 70 70 70 70 70 69 69 69 69 68 69 69 69 69 68 68 69 69
73 73 74 75 75 75 75 75 75 75 75 74 74 74 74 74 73 73 73 73 73 73 73 73 73 73 73 72 72 72 72 72 71 71 71 70 69 68 68 68 68 68 67 67 67 67 67 67 67 66 67 67 68 68 68 69 70 70 70 70 70 70 71 71 71 71 70 70 70 70 69 69 69 69 69 68 68 67 68 69 69 69 68 69 69
72 73 74 75 75 75 75 75 75 75 74 74 74 74 74 74 73 73 73 73 73 73 73 73 73 72 72 72 72 72 72 71 71 71 71 70 68 68 68 68 68 67 67 67 67 67 68 68 67 67 68 67 67 68 68 68 69 69 69 69 70 70 71 71 71 71 70 69 69 69 68 67 67 69 68 68 68 67 67 68 69 69 69 69 69
73 73 74 74 74 75 75 75 74 75 74 74 74 74 74 73 73 73 73 73 73 73 73 73 73 72 72 72 72 72 72 71 72 71 70 69 69 68 68 68 67 67 67 66 66 67 68 68 68 67 67 67 67 68 68 68 68 68 68 68 69 69 70 70 70 69 69 69 69 68 66 66 66 67 67 68 67 67 66 66 67 69 69 69 69
72 73 73 73 74 74 74 74 74 74 74 74 74 74 74 73 73 73 73 73 73 73 73 73 72 72 72 72 72 72 72 71 71 70 70 70 70 69 67 67 68 67 67 67 67 68 68 68 67 67 66 66 67 67 67 67 67 67 67 68 68 68 68 69 69 69 70 70 68 66 66 66 66 66 67 67 67 67 66 66 66 66 69 69 69
72 72 72 73 74 74 74 74 74 74 74 74 74 74 74 74 73 73 73 73 73 73 73 73 72 72 72 72 72 72 71 71 71 70 71 71 70 70 67 68 67 67 67 68 68 68 68 69 69 68 67 67 67 67 67 67 67 67 67 67 67 68 67 68 67 68 68 69 66 64 64 64 65 66 67 66 66 66 66 66 65 66 67 69 69
71 71 72 73 74 75 74 74 74 74 74 74 74 74 74 73 73 73 73 73 73 73 72 72 72 72 72 72 72 71 72 71 71 71 71 71 70 71 70 68 67 68 68 68 68 69 69 69 70 69 67 67 67 66 67 66 67 67 68 68 68 68 69 69 68 69 70 67 64 63 63 64 64 65 67 66 66 66 66 66 65 65 66 68 69
70 70 72 73 74 74 74 74 74 74 74 74 74 74 74 74 73 73 73 73 73 72 72 72 72 72 72 72 71 71 71 71 71 71 71 71 71 71 70 68 68 69 70 69 70 70 70 70 69 69 69 69 67 66 66 67 67 67 68 67 68 68 68 68 70 68 62 62 61 62 62 62 62 63 66 66 66 65 65 65 64 64 64 67 68
69 71 72 73 74 74 74 74 74 74 74 74 74 74 74 73 73 73 73 73 72 72 72 72 72 72 71 71 71 71 71 71 71 70 71 71 70 70 71 69 69 69 69 69 70 69 69 69 69 69 69 69 69 68 66 67 67 68 66 67 68 68 69 69 69 65 61 62 61 61 62 64 62 63 65 65 64 63 65 65 64 64 65 66 66
69 71 72 73 73 74 73 74 74 74 74 74 74 74 74 73 73 73 73 73 72 72 72 72 72 72 71 71 71 71 71 71 70 70 70 71 70 70 69 70 70 69 70 70 70 70 70 70 70 69 69 69 69 69 69 67 68 68 68 67 69 69 69 69 67 60 60 60 60 61 63 65 62 63 65 65 65 64 64 64 64 63 63 65 65
69 71 72 73 74 73 74 73 74 74 74 74 74 74 73 73 73 73 73 73 72 72 72 72 72 72 71 71 71 71 71 71 70 70 70 71 70 70 70 70 70 71 70 70 71 70 70 70 69 69 69 69 68 69 68 69 69 69 69 69 69 69 68 69 65 58 59 59 61 62 62 62 62 62 63 63 63 63 64 63 63 62 62 63 65
70 72 72 73 73 74 73 73 74 74 74 74 73 73 73 73 73 73 73 73 73 72 72 72 72 72 72 71 71 71 72 71 71 71 70 70 70 70 70 70 71 71 71 70 70 70 70 69 69 69 69 69 69 69 69 69 69 69 69 69 69 69 68 69 64 60 61 61 61 61 61 62 62 64 64 64 64 63 63 63 63 63 63 62 64
71 71 72 73 73 75 73 73 73 74 73 73 73 73 73 73 73 73 73 73 73 73 72 72 72 72 72 72 72 72 72 72 72 70 70 71 71 70 71 71 71 71 71 70 70 70 70 70 70 69 69 69 69 69 70 70 69 69 70 69 69 69 69 67 65 61 61 61 62 61 61 64 63 65 64 63 63 64 64 63 63 62 62 62 65
70 71 72 72 73 73 74 73 73 73 73 73 73 73 73 73 73 72 72 73 73 72 72 72 72 72 72 72 72 72 72 72 72 71 71 71 71 71 71 71 71 71 70 70 70 70 70 69 69 69 69 69 69 69 69 69 69 69 70 69 69 69 69 67 60 60 60 61 61 61 61 63 65 65 63 64 65 65 64 63 63 63 63 63 64
70 71 72 72 72 72 73 74 73 73 73 73 73 73 72 72 72 72 72 72 72 72 72 72 72 72 72 72 72 72 72 72 72 72 72 72 72 71 71 71 71 70 70 70 70 70 70 70 70 69 69 69 69 69 69 70 69 70 69 69 69 69 70 70 63 60 60 60 61 61 60 63 66 65 64 63 63 63 63 63 63 63 63 62 62
69 70 70 71 72 72 72 72 72 73 72 72 73 73 72 72 72 72 72 72 72 72 72 72 72 72 72 72 71 71 71 72 72 72 72 72 71 71 71 70 70 70 70 70 70 70 70 70 69 69 69 69 69 69 69 70 70 70 69 69 70 70 71 69 58 60 60 61 61 61 62 62 65 65 64 64 64 64 63 63 63 63 63 62 62
68 69 70 70 71 71 71 72 72 71 72 72 73 72 72 72 72 72 72 72 72 72 72 72 72 72 72 71 71 71 71 72 72 72 72 72 71 71 71 70 70 70 69 70 70 70 70 70 69 69 69 69 69 69 69 70 69 70 69 70 70 70 71 65 62 61 62 63 61 62 62 64 64 64 63 64 64 63 63 63 63 63 62 62 62
66 68 68 69 70 70 71 71 71 71 71 71 72 72 72 72 72 72 72 72 72 72 72 72 72 71 71 71 71 71 71 72 72 72 72 71 71 71 71 71 70 70 69 70 70 69 70 70 70 69 69 69 69 69 69 70 69 69 69 70 70 70 68 64 61 61 61 61 60 61 62 64 64 64 64 64 64 63 62 62 62 62 62 62 62
66 66 66 67 69 70 70 70 70 70 71 71 71 71 72 72 72 72 72 72 72 72 72 72 72 71 71 71 71 71 71 71 72 71 71 71 71 70 71 70 70 70 70 70 69 69 69 69 70 69 70 69 69 69 69 69 69 69 70 70 70 68 63 61 60 60 61 62 63 61 64 64 64 64 63 63 61 63 63 63 63 63 63 63 63
66 65 65 65 68 69 69 69 70 70 70 70 71 71 71 73 72 72 72 72 72 72 72 72 72 71 71 71 70 70 70 70 70 70 71 71 71 71 70 70 70 70 70 69 69 69 68 69 70 70 69 70 69 69 69 69 69 69 69 69 69 65 63 62 62 63 62 63 63 61 63 64 63 63 63 62 62 63 62 63 63 62 62 61 61
64 64 64 65 68 69 68 68 69 69 70 70 70 71 72 71 71 71 72 72 72 72 72 71 72 70 71 70 69 70 69 69 70 70 70 71 70 71 70 70 70 70 69 69 68 68 68 68 69 70 70 70 70 66 67 69 69 69 69 70 65 66 63 61 61 61 62 62 64 64 65 64 63 63 63 63 63 62 62 61 61 61 61 62 62
64 66 66 66 67 68 67 68 69 69 69 69 70 71 71 71 71 71 71 71 71 72 71 71 70 70 70 70 70 69 69 69 69 70 70 70 70 70 70 69 69 69 69 69 68 68 68 67 68 69 70 69 68 66 65 65 66 69 69 66 66 66 61 61 61 61 61 62 61 63 64 65 63 63 62 63 62 61 61 61 62 62 61 61 61
66 65 65 67 67 68 68 68 68 68 69 69 70 70 70 71 71 70 70 70 70 70 70 70 70 70 70 69 69 69 69 69 70 70 70 70 70 70 70 69 69 69 69 69 68 67 67 67 68 68 69 69 66 65 66 65 65 66 65 65 63 61 61 61 61 61 61 62 63 66 64 64 63 62 62 62 62 63 63 62 61 61 61 61 61
67 66 66 66 67 67 67 67 67 67 68 69 69 69 70 70 70 70 70 70 70 69 69 69 69 69 69 69 70 69 69 68 68 68 68 69 68 68 68 68 67 67 69 65 65 66 66 64 64 66 64 64 65 64 65 66 66 65 63 63 62 62 62 62 61 61 61 63 64 65 64 64 63 63 62 62 62 62 62 62 61 61 61 61 61
66 65 65 66 67 67 67 67 67 67 67 68 69 69 70 69 69 69 69 69 69 68 68 68 68 68 69 69 69 68 69 67 67 67 68 68 68 67 67 67 66 66 68 64 63 63 63 63 62 62 61 62 63 63 65 66 66 63 64 65 64 64 64 63 62 62 63 64 63 64 65 64 64 63 63 63 63 62 62 62 62 61 61 62 61
66 65 66 67 67 67 67 68 67 67 67 68 68 69 68 69 68 69 68 68 68 67 68 68 69 69 69 70 69 68 68 67 67 67 67 68 67 67 67 67 66 66 66 64 63 63 62 62 62 61 61 61 62 63 64 65 64 62 64 66 67 65 65 64 62 62 63 63 65 65 66 65 64 63 63 63 63 63 62 62 62 62 61 61 61
66 66 66 67 67 67 68 68 67 67 67 68 68 68 67 67 67 69 67 69 68 68 67 68 69 69 69 69 69 68 67 67 67 67 67 67 67 67 67 67 67 66 66 65 63 62 61 62 62 61 61 61 62 62 63 62 62 63 64 65 66 65 66 64 62 62 62 63 64 64 66 66 65 63 63 62 63 63 63 63 62 62 61 61 61
66 66 66 67 67 67 68 68 67 67 67 68 68 68 67 66 66 67 67 70 68 67 67 68 68 69 68 68 68 67 67 66 66 66 67 67 67 67 67 67 66 66 65 65 64 62 61 61 61 61 61 62 62 63 61 61 63 63 63 65 65 65 67 65 62 62 63 63 64 65 65 65 66 65 63 63 63 62 62 61 62 62 62 62 61
66 66 66 66 67 68 67 67 67 67 68 69 68 68 67 67 67 68 68 68 67 67 67 67 68 68 67 68 68 67 66 66 66 67 67 66 66 66 66 66 65 65 65 65 64 62 61 62 62 62 61 62 62 64 62 62 62 63 64 65 64 66 66 66 63 63 64 65 65 66 65 66 66 65 64 63 63 63 62 62 62 62 61 61 60
67 66 67 67 68 68 67 68 68 68 68 68 68 68 67 67 67 68 68 68 68 68 68 68 68 67 67 67 67 67 66 66 66 66 66 66 65 65 65 65 64 64 65 64 64 62 63 62 62 62 62 61 66 63 61 62 63 66 65 65 65 64 65 66 66 65 65 65 66 66 65 64 65 66 66 66 64 63 63 62 62 61 62 62 62
66 66 67 68 68 68 68 68 68 67 67 68 68 66 66 67 67 68 68 68 68 68 68 68 68 68 67 67 67 67 67 66 67 66 65 65 65 66 66 65 64 64 66 65 64 65 65 67 67 68 68 67 64 63 64 64 64 66 66 65 65 64 65 66 66 65 65 65 65 65 65 65 66 66 65 66 65 64 62 62 62 62 62 62 62
66 66 66 66 67 67 68 68 68 67 67 67 67 66 67 67 67 68 68 68 68 68 68 68 68 67 67 67 67 67 67 67 66 66 66 65 66 66 66 66 66 65 67 66 67 67 66 66 66 67 67 65 63 63 65 65 64 64 65 65 64 65 65 66 66 65 65 65 65 65 64 64 65 66 66 65 65 64 63 63 63 63 63 61 60
66 66 66 67 67 67 68 67 67 67 67 67 68 67 67 66 67 68 68 68 68 68 68 68 67 67 67 67 67 67 67 67 66 66 66 66 65 65 65 65 66 65 66 67 65 67 65 65 65 63 67 63 63 64 64 63 64 64 64 64 64 64 65 66 66 65 65 65 65 64 64 64 64 64 65 65 66 65 65 64 64 64 63 63 63
66 67 66 67 67 67 67 67 67 68 68 67 67 67 67 68 67 68 68 68 68 68 68 68 67 67 67 67 67 67 67 67 66 66 66 65 65 65 65 65 65 66 66 66 67 66 66 65 65 63 62 63 63 63 63 63 64 64 64 63 64 64 65 65 65 65 65 64 64 64 64 65 65 64 65 65 67 66 66 66 64 64 64 64 64
66 67 67 66 66 66 67 66 66 66 65 66 67 67 67 67 68 69 68 68 68 67 67 67 67 67 66 66 67 67 67 67 66 66 66 66 65 65 65 66 66 67 67 67 68 66 64 66 65 66 62 62 63 63 63 63 64 63 63 64 64 64 64 64 64 65 65 65 65 65 65 64 64 64 66 64 64 65 66 66 66 65 65 64 64
67 67 66 65 65 65 66 65 65 66 64 64 66 66 67 67 68 68 68 67 67 67 67 67 67 66 66 66 67 67 66 67 67 65 65 66 66 66 66 66 67 67 66 66 66 66 65 67 66 65 64 62 63 63 63 63 63 63 63 63 64 64 64 64 64 64 65 65 64 64 64 63 64 66 64 64 64 65 66 66 65 66 66 64 63
67 66 65 65 65 65 65 65 65 65 65 64 65 65 66 67 67 66 67 66 67 67 67 67 67 67 66 66 67 67 66 67 67 65 65 66 66 66 66 67 66 66 65 64 65 65 65 65 63 65 65 62 62 62 62 62 63 63 63 64 63 64 63 63 64 65 64 65 64 63 63 63 64 64 64 64 64 64 64 66 66 66 66 66 64
66 66 65 65 65 65 65 65 65 65 65 65 64 65 66 64 65 66 66 66 66 67 67 67 67 67 66 67 66 66 67 67 67 66 66 66 66 66 66 66 66 65 65 64 64 64 64 66 64 64 64 63 63 62 62 62 63 63 63 64 63 64 63 64 64 64 64 64 64 64 64 63 64 64 64 64 64 64 64 64 63 63 63 66 66
66 66 65 65 65 66 66 65 65 65 65 64 65 65 65 64 64 66 65 65 65 66 67 67 67 67 67 67 66 66 67 66 66 67 66 66 66 65 65 66 66 65 64 64 62 64 65 64 62 63 62 63 62 63 63 63 62 62 62 62 63 63 64 64 64 63 63 64 64 64 64 63 64 64 64 64 64 64 63 63 64 64 64 65 66
65 66 66 65 65 66 66 64 65 64 64 64 64 64 63 63 64 64 64 65 65 65 66 67 67 67 67 67 66 66 66 66 67 66 66 67 66 65 65 65 65 64 63 63 63 65 65 64 64 64 63 61 61 62 63 63 62 61 62 62 62 63 64 63 64 63 63 62 62 63 63 63 63 64 63 64 63 63 64 64 64 64 64 64 64
65 66 65 65 66 65 64 65 64 63 64 64 64 64 65 64 63 63 64 65 64 65 64 65 66 66 66 66 66 66 65 65 67 66 66 66 65 65 65 65 65 65 64 65 65 66 65 64 63 61 63 63 61 63 63 62 60 60 59 59 60 62 62 63 63 63 62 62 63 63 62 62 62 62 62 63 63 63 63 63 63 64 63 63 63
65 65 65 65 63 63 65 64 63 62 64 64 64 64 64 64 64 64 64 64 66 65 65 66 67 66 66 66 66 65 65 65 66 66 66 66 65 65 64 65 65 65 63 62 63 64 64 64 63 61 61 62 62 62 62 61 59 60 59 58 57 57 59 61 63 63 62 62 62 62 62 62 63 62 62 61 62 62 62 62 63 63 63 64 63
65 65 65 64 63 63 63 64 63 63 64 64 64 64 64 64 64 65 65 65 64 66 65 66 66 66 65 66 65 65 65 65 66 66 66 66 65 64 66 65 64 65 64 63 63 63 63 63 64 62 61 61 61 61 63 62 61 59 55 55 55 57 56 57 59 61 62 62 62 61 62 62 62 62 62 62 62 62 62 62 63 64 64 64 63
65 65 64 63 63 63 63 64 65 64 64 64 64 64 64 63 64 64 64 65 65 65 64 64 65 66 65 64 65 65 66 65 65 66 66 65 65 65 64 64 64 65 65 64 64 65 64 64 64 63 61 61 61 61 62 62 61 60 58 54 53 53 53 57 58 58 61 61 61 61 61 61 61 61 61 62 61 62 62 62 63 63 64 64 63
64 64 63 63 63 63 63 65 66 65 64 64 63 63 63 63 63 63 62 62 62 62 62 63 64 64 64 64 65 65 66 65 65 65 65 65 64 65 65 65 65 63 64 64 63 63 64 64 63 63 61 62 62 61 60 62 62 62 61 58 56 53 55 57 56 54 60 61 60 61 61 60 61 61 61 61 61 61 61 62 62 62 63 63 63
60 60 62 62 63 63 63 66 66 66 65 64 63 63 63 63 63 62 63 62 62 62 63 64 64 65 65 65 65 65 65 65 64 64 64 65 65 65 65 65 64 64 64 64 63 63 64 63 64 63 62 63 62 61 61 61 61 62 62 62 62 60 59 57 55 57 55 59 60 59 59 61 61 61 62 61 62 61 61 62 62 63 63 62 62
61 61 62 62 63 63 64 66 66 65 65 64 63 63 63 63 63 63 63 63 62 62 62 63 64 65 65 65 64 64 64 64 64 64 64 65 65 65 65 65 65 64 65 64 64 64 63 63 63 63 62 62 62 61 61 61 60 60 61 60 61 61 59 59 58 57 56 55 57 60 61 62 61 61 62 61 61 61 61 61 61 62 62 62 61
61 61 62 63 64 64 65 65 65 65 65 64 63 63 63 63 63 63 63 63 63 62 63 64 64 64 64 64 63 63 63 63 63 64 64 64 65 65 65 66 65 64 64 64 64 64 63 62 63 63 63 63 62 62 61 61 60 60 59 60 60 59 59 59 60 58 56 55 56 57 57 59 59 59 60 60 61 61 61 61 61 61 61 60 60
60 60 62 62 62 63 64 64 64 64 64 63 63 63 63 63 63 63 62 62 61 62 63 63 63 63 62 63 62 62 62 62 63 64 63 63 65 64 65 65 64 64 63 63 63 63 63 63 63 63 63 63 62 62 60 61 61 61 61 60 59 59 58 58 58 57 57 56 55 56 56 56 55 56 59 59 60 60 60 60 61 61 60 59 59
61 61 61 61 62 62 63 63 63 64 64 64 63 63 63 62 62 62 62 62 62 63 62 61 62 63 63 62 63 62 62 63 62 63 64 64 64 64 63 62 64 64 62 64 62 63 63 64 64 64 63 63 62 62 61 61 61 61 61 61 60 59 57 56 57 57 56 55 55 56 56 57 56 56 57 59 59 59 59 60 60 59 57 57 56